Regional Weather Roundup
Issued by NWS

Home | Current Version | Previous Version | Graphics & Text | Print | Product List | Glossary On
Versions: 1 2 3 4 5 6 7 8 9 10 11 12 13 14 15 16 17 18 19 20 21 22 23 24 25 26 27
000
ASUS45 KCYS 202310
RWRWY

WYOMING REGIONAL WEATHER ROUNDUP
NATIONAL WEATHER SERVICE CHEYENNE WY
400 PM MST MON NOV 20 2017

NOTE:  "FAIR" INDICATES FEW OR NO CLOUDS BELOW 12,000 FEET
WITH NO SIGNIFICANT WEATHER AND/OR OBSTRUCTIONS TO VISIBILITY.

WYZ001-210000-
YELLOWSTONE NATIONAL PARK

CITY           SKY/WX    TMP DP  RH WIND       PRES   REMARKS
LK YELLOWSTONE   N/A     27  25  92 VRB3      29.97S
W YELLOWSTONE  NOT AVBL

$$
WYZ002>013-054>058-071-098>099-210000-
NORTHERN WYOMING

CITY           SKY/WX    TMP DP  RH WIND       PRES   REMARKS
JACKSON        LGT SNOW  34  28  80 S15       30.00R FOG     WCI  24
CODY           FAIR      46  26  45 W13G29    29.81R
GREYBULL       CLOUDY    41  25  53 VRB3      29.79R
WORLAND        FAIR      38  28  67 N3        29.79R
SHERIDAN       CLOUDY    55  29  36 W10G16    29.69R
BUFFALO        MOCLDY    49  24  37 SE7       29.73R
GILLETTE       FAIR      52  22  30 CALM      29.72R
HULETT         FAIR      52  23  32 N3        29.72R
NEWCASTLE      FAIR      45  19  36 NW8       29.75R

$$
WYZ014>020-022>026-101>103-210000-
CENTRAL WYOMING

CITY           SKY/WX    TMP DP  RH WIND       PRES   REMARKS
BIG PINEY      MOCLDY    36  26  67 VRB6      30.00S WCI  31
PINEDALE       CLOUDY    37  23  56 CALM      30.00S
DUBOIS         CLOUDY    34  25  69 N21G31    29.88R WCI  22
LANDER         FAIR      47  23  38 SE6       29.82R
RIVERTON       FAIR      46  23  40 S3        29.84R
CASPER         FAIR      45  20  36 SW20      29.84S
DOUGLAS        FAIR      49  23  36 W28G37    29.78S

$$
WYZ021-027>030-104>119-210000-
SOUTHERN WYOMING

CITY           SKY/WX    TMP DP  RH WIND       PRES   REMARKS
EVANSTON       FAIR      37  26  64 SW21      30.06F WCI  26
KEMMERER       FAIR      34  23  64 SW5       30.03R WCI  30
FORT BRIDGER   FAIR      37  28  70 W12       30.02F WCI  30
ROCK SPRINGS   FAIR      36  21  54 SW14      29.98F WCI  27
DIXON          MOCLDY    40  18  41 SW5       30.07F
RAWLINS        LGT RAIN  40  17  39 SW26G39   29.93F WCI  29
SARATOGA       MOCLDY    41  18  38 SW10G20   30.00F
LARAMIE        FAIR      44  11  26 SW14      29.94F
CHEYENNE       FAIR      54  10  17 NW23G38   29.85R
TORRINGTON     FAIR      56  16  20 W26G33    29.78R
PINE BLUFFS    FAIR      55  10  16 W26G38    29.82S

$$




USA.gov is the U.S. government's official web portal to all federal, state and local government web resources and services.